Milan, Italy

9:18 AM CEST on July 27, 2016 (GMT +0200)
Malpensa

Weather History for LIMC - October, 2013

Change the Weather History Date:

Sunday, October 6, 2013

  Actual Average Record
Temperature  
Mean Temperature 54 °F -  
Max Temperature 60 °F 62 °F 75 °F (1997)
Min Temperature 48 °F 42 °F 33 °F (1999)
Degree Days  
Heating Degree Days 11    
Growing Degree Days 4 (Base 50)    
Moisture  
Dew Point 53 °F    
Average Humidity 95    
Maximum Humidity 100    
Minimum Humidity 82    
Precipitation  
Precipitation 0.00 in 0.14 in - ()
Sea Level Pressure  
Sea Level Pressure 30.16 in    
Wind  
Wind Speed 2 mph ()    
Max Wind Speed 7 mph    
Max Gust Speed -    
Visibility 2.7 miles    
Events Fog , Rain    
Averages and records for this station are not official NWS values.
T = Trace of Precipitation, MM = Missing Value Source: Averaged Metar Reports

Daily Weather History Graph

Daily Weather History Graph

Search for Another Location

Airport or City:

Trip Planner

Search our weather history database for the weather conditions in past years. The results will help you decide how hot, cold, wet, or windy it might be!

Date:

Astronomy

Oct. 06, 2013 Rise Set
Actual Time 7:29 AM CEST 6:55 PM CEST
Civil Twilight 7:00 AM CEST 7:25 PM CEST
Nautical Twilight 6:25 AM CEST 7:59 PM CEST
Astronomical Twilight 5:50 AM CEST 8:34 PM CEST
Moon 9:02 AM CEST (10/6) 7:36 PM CEST (10/6)
Length of Visible Light 12h 25m
Length of Day
11h 26m
New Moon, 2% of the Moon is Illuminated
Oct 6
New Moon
Oct 12
First Quarter
Oct 19
Full
Oct 27
Last Quarter
Nov 3
New

Hourly Weather History & Observations

Time (CEST) Temp. Dew Point Humidity Pressure Visibility Wind Dir Wind Speed Gust Speed Precip Events Conditions
12:20 AM 51.8 °F 51.8 °F 100% 30.15 in 1.9 mi Variable 2.3 mph - N/A Fog Patches of Fog
12:50 AM 51.8 °F 51.8 °F 100% 30.15 in 1.9 mi Variable 1.2 mph - N/A Fog Patches of Fog
1:20 AM 53.6 °F 51.8 °F 94% 30.15 in 1.9 mi Calm Calm - N/A   Partly Cloudy
1:50 AM 53.6 °F 51.8 °F 94% 30.15 in 1.9 mi East 2.3 mph - N/A   Mist
2:20 AM 53.6 °F 51.8 °F 94% 30.15 in 1.9 mi East 3.5 mph - N/A   Partly Cloudy
2:50 AM 53.6 °F 51.8 °F 94% 30.15 in 1.9 mi Variable 1.2 mph - N/A   Partly Cloudy
3:20 AM 53.6 °F 51.8 °F 94% 30.15 in 1.9 mi Calm Calm - N/A   Partly Cloudy
3:50 AM 51.8 °F 51.8 °F 100% 30.15 in 1.9 mi Calm Calm - N/A   Scattered Clouds
4:20 AM 50.0 °F 50.0 °F 100% 30.15 in 1.9 mi ESE 2.3 mph - N/A   Scattered Clouds
4:50 AM 48.2 °F 48.2 °F 100% 30.15 in 1.2 mi Variable 1.2 mph - N/A Fog Patches of Fog
5:20 AM 48.2 °F 48.2 °F 100% 30.15 in 0.9 mi Variable 2.3 mph - N/A Fog Patches of Fog
5:50 AM 48.2 °F 48.2 °F 100% 30.15 in 0.9 mi Calm Calm - N/A Fog Patches of Fog
6:20 AM 50.0 °F 50.0 °F 100% 30.15 in 0.9 mi Calm Calm - N/A Fog Patches of Fog
6:50 AM 51.8 °F 50.0 °F 94% 30.15 in 0.7 mi Variable 1.2 mph - N/A Fog Patches of Fog
7:20 AM 51.8 °F 51.8 °F 100% 30.15 in 1.6 mi NNW 3.5 mph - N/A   Mostly Cloudy
7:50 AM 51.8 °F 51.8 °F 100% 30.15 in 0.9 mi Variable 2.3 mph - N/A Fog Patches of Fog
8:20 AM 51.8 °F 51.8 °F 100% 30.15 in 0.9 mi Variable 2.3 mph - N/A   Mostly Cloudy
8:50 AM 53.6 °F 51.8 °F 94% 30.15 in 1.0 mi Variable 1.2 mph - N/A   Mostly Cloudy
9:20 AM 53.6 °F 51.8 °F 94% 30.15 in 1.0 mi Variable 1.2 mph - N/A   Mostly Cloudy
9:50 AM 53.6 °F 53.6 °F 100% 30.18 in 1.0 mi Variable 1.2 mph - N/A   Mostly Cloudy
10:20 AM 55.4 °F 53.6 °F 94% 30.18 in 1.0 mi South 2.3 mph - N/A   Light Drizzle
10:50 AM 55.4 °F 53.6 °F 94% 30.18 in 1.0 mi South 3.5 mph - N/A   Mostly Cloudy
12:20 PM 57.2 °F 53.6 °F 88% 30.18 in 1.6 mi NW 3.5 mph - N/A   Light Drizzle
12:50 PM 57.2 °F 53.6 °F 88% 30.18 in 1.8 mi Calm Calm - N/A Rain Light Rain
1:20 PM 57.2 °F 55.4 °F 94% 30.18 in 1.9 mi Variable 2.3 mph - N/A Rain Light Rain
1:50 PM 57.2 °F 55.4 °F 94% 30.18 in 1.9 mi NE 3.5 mph - N/A Rain Light Rain
2:20 PM 57.2 °F 55.4 °F 94% 30.18 in 1.9 mi NW 4.6 mph - N/A Rain Light Rain
2:50 PM 59.0 °F 55.4 °F 88% 30.15 in 1.9 mi NNW 6.9 mph - N/A Rain Light Rain
3:20 PM 60.8 °F 55.4 °F 82% 30.15 in 2.5 mi NNW 6.9 mph - N/A   Mostly Cloudy
3:50 PM 60.8 °F 55.4 °F 82% 30.15 in 3.1 mi NNW 5.8 mph - N/A   Mostly Cloudy
4:20 PM 59.0 °F 55.4 °F 88% 30.15 in 4.3 mi NNE 3.5 mph - N/A   Mostly Cloudy
4:50 PM 59.0 °F 55.4 °F 88% 30.15 in 2.5 mi Variable 2.3 mph - N/A Rain Rain
5:20 PM 59.0 °F 57.2 °F 94% 30.15 in 2.5 mi NNW 5.8 mph - N/A   Drizzle
5:50 PM 57.2 °F 55.4 °F 94% 30.15 in 2.5 mi NW 5.8 mph - N/A   Drizzle
6:20 PM 57.2 °F 55.4 °F 94% 30.15 in 2.5 mi NNW 6.9 mph - N/A Rain Rain
6:50 PM 57.2 °F 55.4 °F 94% 30.15 in 2.5 mi NNW 6.9 mph - N/A Rain Rain
7:20 PM 57.2 °F 55.4 °F 94% 30.18 in 4.3 mi North 4.6 mph - N/A Rain Light Rain
7:50 PM 57.2 °F 55.4 °F 94% 30.18 in 6.2 mi Calm Calm - N/A   Overcast
8:20 PM 57.2 °F 55.4 °F 94% 30.18 in 6.2 mi NNW 4.6 mph - N/A   Overcast
8:50 PM 57.2 °F 55.4 °F 94% 30.18 in 6.2 mi Variable 2.3 mph - N/A   Mostly Cloudy
9:20 PM 57.2 °F 55.4 °F 94% 30.18 in 6.2 mi North 3.5 mph - N/A   Mostly Cloudy
9:50 PM 55.4 °F 55.4 °F 100% 30.18 in 6.2 mi Calm Calm - N/A   Mostly Cloudy
10:20 PM 55.4 °F 55.4 °F 100% 30.18 in 6.2 mi Calm Calm - N/A Rain Light Rain
10:50 PM 55.4 °F 55.4 °F 100% 30.18 in 6.2 mi Variable 1.2 mph - N/A Rain Light Rain
11:20 PM 55.4 °F 55.4 °F 100% 30.18 in 6.2 mi NNW 4.6 mph - N/A   Mostly Cloudy
11:50 PM 55.4 °F 55.4 °F 100% 30.18 in 6.2 mi Variable 1.2 mph - N/A   Mostly Cloudy